Вернуться в каталог

STARLINK-32340

АктивенСвязьVLEO
NORAD 61008·PAYLOAD·🇺🇸 United States

Запущен Sep 5, 2024 с Cape Canaveral Space Force Station

Loading…

Ближайшие Пролёты (ближайшие 24 часа)

TLE

СвежийSource: CelesTrak SupGP

Эпоха: Sep 15, 2026, 02:42 UTC

1 61008C 24158U   26258.11298611 -.00022734  00000+0 -67147-3 0  2582
2 61008  53.1571 262.5500 0001225  93.7420 349.8400 15.34411469    11

Отслеживайте STARLINK-32340 в реальном времени с AllMySat

Download on the App Store